TimeCST,TemperatureF,Dew PointF,Humidity,Sea Level PressureIn,VisibilityMPH,Wind Direction,Wind SpeedMPH,Gust SpeedMPH,PrecipitationIn,Events,Conditions,WindDirDegrees,DateUTC
12:55 AM,10.0,7.0,87,30.41,10.0,SSW,5.8,-,N/A,,Clear,210,2013-01-04 06:55:00
1:55 AM,14.0,10.0,84,30.40,10.0,SW,4.6,-,N/A,,Clear,230,2013-01-04 07:55:00
2:55 AM,14.0,10.0,84,30.40,10.0,SW,6.9,-,N/A,,Clear,220,2013-01-04 08:55:00
3:55 AM,14.0,10.0,84,30.40,10.0,WSW,4.6,-,N/A,,Clear,250,2013-01-04 09:55:00
4:55 AM,12.0,8.1,84,30.39,8.0,SW,4.6,-,N/A,,Clear,230,2013-01-04 10:55:00
5:55 AM,12.0,9.0,88,30.39,6.0,SW,6.9,-,N/A,,Clear,220,2013-01-04 11:55:00
6:55 AM,14.0,10.9,88,30.38,7.0,SW,6.9,-,N/A,,Clear,230,2013-01-04 12:55:00
7:55 AM,16.0,12.9,88,30.37,5.0,SW,6.9,-,N/A,,Clear,220,2013-01-04 13:55:00
8:55 AM,19.9,16.0,85,30.38,5.0,SW,8.1,-,N/A,,Clear,230,2013-01-04 14:55:00
9:55 AM,25.0,19.0,78,30.40,8.0,WSW,9.2,-,N/A,,Clear,250,2013-01-04 15:55:00
10:55 AM,30.0,21.0,69,30.39,10.0,WSW,10.4,-,N/A,,Clear,240,2013-01-04 16:55:00
11:55 AM,32.0,21.9,66,30.37,10.0,SW,9.2,-,N/A,,Clear,230,2013-01-04 17:55:00
12:55 PM,34.0,21.9,61,30.34,10.0,WSW,11.5,20.7,N/A,,Clear,240,2013-01-04 18:55:00
1:55 PM,35.1,24.1,64,30.31,10.0,SW,11.5,-,N/A,,Clear,220,2013-01-04 19:55:00
2:55 PM,36.0,23.0,59,30.30,10.0,SW,11.5,20.7,N/A,,Clear,220,2013-01-04 20:55:00
3:55 PM,35.1,24.1,64,30.30,10.0,SW,9.2,-,N/A,,Clear,230,2013-01-04 21:55:00
4:55 PM,34.0,23.0,64,30.30,10.0,WSW,4.6,-,N/A,,Clear,240,2013-01-04 22:55:00
5:55 PM,30.0,21.9,72,30.32,10.0,SSW,5.8,-,N/A,,Clear,210,2013-01-04 23:55:00
6:55 PM,24.1,19.9,84,30.32,10.0,South,6.9,-,N/A,,Clear,190,2013-01-05 00:55:00
7:55 PM,26.6,21.2,80,30.26,10.0,SSW,6.9,-,N/A,,Clear,200,2013-01-05 01:55:00
8:55 PM,27.0,21.0,78,30.30,10.0,SSW,5.8,-,N/A,,Clear,210,2013-01-05 02:55:00
9:55 PM,27.0,21.9,81,30.30,10.0,SW,3.5,-,N/A,,Clear,230,2013-01-05 03:55:00
10:55 PM,26.1,21.9,84,30.29,10.0,SW,5.8,-,N/A,,Clear,220,2013-01-05 04:55:00
11:55 PM,25.0,19.9,81,30.27,10.0,SSW,5.8,-,N/A,,Clear,200,2013-01-05 05:55:00